Weather History for Fort Campbell, KY

Change the Weather History Date:

Monday, May 27, 2013

  Actual Average Record
Temperature  
Mean Temperature 72 °F -  
Max Temperature 83 °F 77 °F 91 °F (2012)
Min Temperature 60 °F 58 °F 50 °F (1999)
Cooling Degree Days 6    
Growing Degree Days 22 (Base 50)    
Moisture  
Dew Point 61 °F    
Average Humidity 63    
Maximum Humidity 94    
Minimum Humidity 46    
Precipitation  
Precipitation 0.00 in - - ()
Sea Level Pressure  
Sea Level Pressure 30.06 in    
Wind  
Wind Speed 7 mph (South)    
Max Wind Speed 17 mph    
Max Gust Speed 26 mph    
Visibility 10 miles    
Events      
Averages and records for this station are not official NWS values.
T = Trace of Precipitation, MM = Missing Value Source: NWS Daily Summary

Daily Weather History Graph

Daily Weather History Graph

Search for Another Location

Airport:

Trip Planner

Search our weather history database for the weather conditions in past years. The results will help you decide how hot, cold, wet, or windy it might be!

Date:

Astronomy

May. 27, 2013 Rise Set
Actual Time 5:34 AM CDT 7:59 PM CDT
Civil Twilight 5:05 AM CDT 8:29 PM CDT
Nautical Twilight 4:28 AM CDT 9:06 PM CDT
Astronomical Twilight 3:47 AM CDT 9:47 PM CDT
Moon 10:40 PM CDT (5/27) 8:10 AM CDT (5/27)
Length of Visible Light 15h 24m
Length of Day
14h 25m
Waning Gibbous, 91% of the Moon is Illuminated
May 27
Waning Gibbous
May 31
Last Quarter
Jun 8
New
Jun 16
First Quarter
Jun 23
Full

Hourly Weather History & Observations

Time (CDT) Temp. Heat Index Dew Point Humidity Pressure Visibility Wind Dir Wind Speed Gust Speed Precip Events Conditions
1:58 AM 66.2 °F - 60.8 °F 83% 30.10 in 10.0 mi SSE 3.5 mph - N/A   Clear
2:58 AM 64.4 °F - 60.8 °F 88% 30.09 in 10.0 mi SSW 2.3 mph - N/A   Clear
3:55 AM 62.6 °F - 59.0 °F 88% 30.09 in 10.0 mi South 4.6 mph - N/A   Clear
4:58 AM 62.6 °F - 59.0 °F 88% 30.10 in 10.0 mi Calm Calm - N/A   Clear
5:55 AM 60.8 °F - 59.0 °F 94% 30.12 in 10.0 mi SSW 3.5 mph - N/A   Clear
6:58 AM 64.6 °F - 59.5 °F 84% 30.13 in 10.0 mi South 4.6 mph - N/A   Clear
7:58 AM 70.9 °F - 59.2 °F 66% 30.12 in 10.0 mi South 6.9 mph - N/A   Clear
8:55 AM 75.2 °F - 60.8 °F 61% 30.10 in 10.0 mi South 8.1 mph - N/A   Clear
9:55 AM 77.0 °F - 60.8 °F 57% 30.11 in 10.0 mi SSW 11.5 mph - N/A   Clear
10:58 AM 79.5 °F - 61.5 °F 54% 30.09 in 10.0 mi SSW 12.7 mph - N/A   Clear
11:55 AM 82.4 °F 83.4 °F 62.6 °F 51% 30.08 in 10.0 mi SW 15.0 mph - N/A   Partly Cloudy
11:58 AM 82.0 °F 83.0 °F 62.1 °F 51% 30.08 in 10.0 mi SW 15.0 mph - N/A   Partly Cloudy
12:58 PM 82.6 °F 82.9 °F 60.6 °F 47% 30.06 in 10.0 mi South 16.1 mph - N/A   Scattered Clouds
1:58 PM 83.5 °F 84.1 °F 61.9 °F 48% 30.05 in 10.0 mi SSW 17.3 mph 26.5 mph N/A   Clear
2:58 PM 82.6 °F 83.1 °F 60.8 °F 48% 30.04 in 10.0 mi SW 13.8 mph - N/A   Partly Cloudy
3:58 PM 82.0 °F 82.8 °F 61.5 °F 50% 30.04 in 10.0 mi SSW 12.7 mph 19.6 mph N/A   Scattered Clouds
4:58 PM 81.7 °F 82.0 °F 59.4 °F 47% 30.01 in 10.0 mi SSW 10.4 mph - N/A   Clear
5:58 PM 80.4 °F 80.8 °F 58.1 °F 46% 30.01 in 10.0 mi SSW 10.4 mph - N/A   Mostly Cloudy
6:58 PM 78.6 °F - 60.4 °F 54% 30.01 in 10.0 mi South 8.1 mph - N/A   Scattered Clouds
7:58 PM 77.0 °F - 60.8 °F 57% 30.00 in 10.0 mi South 6.9 mph - N/A   Mostly Cloudy
8:58 PM 75.6 °F - 61.3 °F 61% 30.00 in 10.0 mi South 6.9 mph - N/A   Clear
9:58 PM 74.7 °F - 61.5 °F 63% 29.99 in 10.0 mi SSE 10.4 mph - N/A   Clear
10:58 PM 73.4 °F - 61.9 °F 67% 29.98 in 10.0 mi South 10.4 mph - N/A   Partly Cloudy
11:58 PM 72.9 °F - 62.4 °F 70% 29.99 in 10.0 mi SSE 6.9 mph - N/A   Clear